Retour au catalogue

NOAA 16 DEB

ActifSSO
NORAD 41715·DEBRIS·🇺🇸 United States

Lancé Sep 21, 2000 depuis Vandenberg Space Force Base

Loading…

Prochains Passages (prochaines 24 heures)

TLE

FraisSource: Space-Track

Époque: Sep 12, 2026, 08:47 UTC

1 41715U 00055PV  26255.36611256  .00002880  00000-0  10542-2 0  9990
2 41715  98.6389 301.4732 0011411  81.2037 279.0439 14.33628281539045

Suivez NOAA 16 DEB en temps réel avec AllMySat

Download on the App Store